Terminal Aerodrome Forecast
Issued by NWS Wilmington, OH

Current Version | Previous Version | Graphics & Text | Print | Product List | Glossary On
Versions: 1 2 3 4 5 6 7 8 9 10 11 12 13 14 15 16 17 18 19 20 21 22 23 24 25 26 27 28 29 30 31 32 33
000
FTUS41 KILN 301400 AAA
TAFDAY
TAF AMD
KDAY 301438Z 3015/3112 33014G25KT P6SM BKN040
     FM302100 33011KT P6SM BKN040
     FM302300 33008KT P6SM SCT040
     FM310200 VRB04KT P6SM FEW040
     FM310400 18004KT P6SM SKC=

USA.gov is the U.S. government's official web portal to all federal, state and local government web resources and services.